Location: Unspecified
(0.0000°N, 0.0000°E)
Time: 17:20:54
(UTC+02:00)

Cosmos 1125 Rocket - Visible Passes

Search period start: 27 July 2016 00:00
Search period end: 06 August 2016 00:00
Orbit: 758 x 780 km, 74.0° (Epoch: 27 July)

Date Brightness Start Highest point End Pass type
(mag) Time Alt. Az. Time Alt. Az. Time Alt. Az.
27 Jul 4.7 05:55:49 10° N 06:00:37 39° ENE 06:05:27 10° SSE visible
27 Jul 5.2 07:41:00 10° W 07:42:26 11° WSW 07:43:52 10° WSW visible
28 Jul 5.8 05:20:20 10° NNE 05:24:00 19° ENE 05:27:40 10° ESE visible
28 Jul 4.5 07:01:43 10° NW 07:05:47 23° WSW 07:09:53 10° SSW visible
29 Jul 5.1 06:24:12 10° NNW 06:25:48 20° NW 06:25:48 20° NW visible
